Wind_Speed
63 68 67 69 68 69 70 68 66 58 53 49 47 62 55 55 54 52 47 43 42 41 36 33 29 28 28 30 31 32 33 31 29 29 27 27 26 24 23 23 22 20 19 18 17
70 72 69 71 72 72 71 73 72 67 60 56 52 57 62 57 57 55 49 49 47 45 39 36 34 32 30 31 33 33 32 30 29 30 27 26 24 24 21 20 20 18 18 18 16
69 68 69 70 71 74 75 73 76 76 68 62 59 59 69 62 58 55 54 53 51 48 46 42 41 37 34 35 35 34 32 33 33 32 27 25 23 22 20 19 18 18 17 16 16
50 45 48 53 59 68 75 75 78 79 75 68 66 63 67 74 63 60 58 56 55 52 50 47 43 40 38 36 35 36 36 37 34 32 29 27 26 24 21 18 17 19 19 18 17
24 21 24 29 38 57 69 73 76 81 81 73 71 67 67 75 67 61 60 59 58 56 52 49 45 42 40 37 37 37 39 39 36 33 28 30 28 27 24 21 19 19 20 18 15
28 26 25 23 24 34 59 71 77 81 81 78 75 75 70 70 67 64 62 62 60 56 54 53 49 44 44 43 40 38 40 41 38 36 35 33 31 27 23 21 21 22 21 19 18
24 21 21 25 21 23 25 54 74 78 80 80 78 78 74 72 71 69 64 63 64 58 56 55 52 53 50 47 46 43 43 42 42 38 38 36 36 31 28 26 24 24 23 21 20
21 21 20 23 21 20 22 25 50 73 79 73 79 81 78 73 73 70 66 63 63 60 59 59 59 58 54 51 50 48 49 45 42 40 41 40 34 34 31 29 28 26 25 24 22
19 18 19 21 21 20 21 22 28 53 69 81 79 82 82 75 76 71 68 67 66 62 61 61 60 60 57 55 54 54 54 47 46 44 44 41 35 37 34 33 32 30 28 26 25
19 20 21 20 18 17 18 23 22 30 46 71 81 86 86 79 73 72 71 68 68 66 62 62 62 61 62 62 60 53 53 51 50 46 45 43 39 38 37 36 35 34 31 29 28
18 20 18 18 17 17 15 20 23 30 44 59 54 78 90 84 74 72 72 70 70 68 66 64 62 64 61 59 53 52 50 49 50 49 49 44 42 40 40 41 39 36 33 32 31
19 17 17 17 17 17 15 19 23 25 34 46 72 65 77 90 79 74 71 74 72 71 70 66 65 61 57 55 55 54 54 52 52 51 50 46 45 44 44 44 42 41 39 36 33
20 20 17 16 15 13 14 19 25 26 31 43 68 72 79 83 82 76 76 72 73 68 69 66 65 62 58 56 57 55 55 54 53 51 52 49 48 47 47 46 47 45 41 37 33
21 18 18 14 15 15 14 16 20 25 21 36 53 63 64 67 79 71 74 70 74 72 67 67 65 64 60 56 55 54 52 53 51 50 50 49 47 46 43 42 39 41 40 36 34
21 16 15 14 13 14 14 15 18 15 12 38 68 55 42 53 67 78 72 75 73 73 73 71 70 67 63 57 56 53 50 52 51 48 48 49 49 45 43 41 37 40 39 36 35
16 12 13 12 12 14 13 12 9 7 20 33 69 55 46 46 50 62 72 76 75 74 68 65 65 65 63 59 58 53 51 53 51 51 52 49 50 46 42 37 36 39 37 35 33
8 7 9 10 10 11 12 12 5 22 29 30 56 64 57 47 46 53 70 78 79 78 75 73 69 66 64 62 61 58 55 56 56 59 58 52 52 47 43 38 33 37 34 33 32
4 3 6 7 11 10 10 11 8 15 15 23 37 62 57 46 46 40 61 71 78 77 73 77 76 72 67 66 65 64 58 63 65 63 57 56 54 49 41 39 37 38 37 36 36
5 3 5 7 10 12 11 11 12 18 21 25 11 40 77 53 42 41 48 71 71 77 77 76 75 69 69 66 64 65 62 59 62 60 57 57 53 50 45 41 39 39 36 36 36
7 5 5 9 9 9 12 14 11 17 28 27 19 35 58 63 46 49 44 52 71 72 74 74 72 71 67 66 64 64 58 61 64 65 62 61 58 52 48 42 39 37 37 35 34
12 4 6 9 9 10 5 7 2 12 27 29 25 30 49 54 56 52 45 46 57 66 71 73 72 71 68 70 67 69 66 64 60 62 62 60 59 52 49 46 42 35 32 36 34
21 8 7 9 9 7 5 4 2 8 22 33 27 31 44 52 62 48 47 35 42 54 66 72 72 71 71 69 67 67 62 61 64 66 65 59 61 55 52 47 44 38 38 34 36
28 16 9 6 5 6 11 14 11 2 14 24 25 30 37 42 53 59 57 44 39 45 56 67 71 71 69 68 68 68 65 64 60 61 64 60 60 55 54 49 49 40 39 35 35
30 19 14 6 2 4 9 14 14 14 14 22 30 35 30 37 49 47 39 49 44 46 44 65 69 74 78 75 73 74 70 66 63 62 64 63 56 57 53 51 49 40 30 34 36
32 17 11 4 5 8 10 12 12 11 13 19 35 42 34 33 26 58 49 49 51 41 43 59 69 68 71 69 63 64 64 65 65 65 64 62 61 58 55 52 48 45 40 37 37
43 16 12 8 7 8 12 14 15 16 13 17 30 39 45 48 36 43 72 58 38 49 41 46 55 68 69 66 68 66 63 54 57 61 61 59 58 56 53 53 51 48 47 45 45
59 36 14 14 9 9 10 13 16 20 19 18 22 33 49 41 45 41 39 51 63 50 48 46 42 42 59 68 69 66 66 64 62 62 63 65 60 53 54 56 54 52 52 51 50
Wind_Direction
278 268 262 257 253 248 246 243 244 239 233 232 221 216 221 221 218 214 209 208 204 201 202 195 190 190 188 187 187 183 180 175 178 174 167 167 167 168 173 180 177 190 194 194 200
279 273 266 259 256 250 244 241 238 238 231 227 223 215 218 222 219 216 210 208 208 204 205 201 198 192 191 193 190 186 185 182 185 179 179 177 176 173 180 183 184 197 205 207 213
288 279 273 266 256 250 246 238 237 235 230 224 222 216 214 219 220 216 213 209 210 209 204 206 204 194 193 197 197 190 189 198 193 182 190 187 190 187 185 189 191 204 212 214 219
292 285 275 265 254 245 242 239 232 233 230 222 220 218 214 212 222 217 216 213 211 210 208 207 209 204 196 197 200 194 196 205 200 189 190 202 203 204 202 205 208 215 220 222 226
282 271 269 263 253 236 230 228 229 227 229 224 218 216 218 208 216 214 216 216 214 211 211 211 212 210 204 201 203 199 201 207 206 201 202 209 210 215 213 216 217 217 220 222 223
272 273 267 269 263 250 235 226 220 223 223 222 218 216 215 211 211 214 213 217 218 216 215 215 211 214 209 206 205 203 206 207 210 213 207 215 218 223 224 220 213 220 220 221 224
278 277 268 267 269 259 257 238 224 219 218 219 215 216 213 210 210 214 211 214 216 216 216 217 213 215 214 208 206 208 211 209 210 214 217 213 217 219 224 224 217 217 227 224 228
286 274 269 260 266 267 254 250 238 223 215 215 213 214 212 209 209 213 214 216 219 214 215 214 214 215 214 214 208 207 216 212 212 214 222 219 219 225 223 228 226 221 229 235 233
288 283 269 262 262 273 265 259 250 234 221 211 217 215 211 211 212 209 213 213 217 217 214 214 214 217 213 214 213 210 216 214 214 216 222 226 221 229 230 229 231 230 229 237 242
292 288 278 270 261 265 269 256 260 243 227 215 212 213 210 210 213 210 208 211 213 216 216 215 214 216 217 215 215 217 216 218 217 220 224 226 229 230 232 237 240 239 238 236 241
301 292 279 269 264 264 263 262 262 251 229 200 197 218 214 210 211 212 208 209 212 213 216 218 216 217 218 219 217 220 219 221 223 222 223 226 229 234 237 238 240 245 242 243 243
298 290 283 269 267 263 257 261 260 264 242 212 190 200 212 213 211 208 211 207 211 212 215 215 218 217 216 218 219 220 220 219 222 223 226 228 230 233 236 239 239 238 239 240 243
292 289 291 288 263 260 261 271 264 269 250 213 199 207 213 213 209 212 213 211 209 213 215 218 220 217 213 215 217 218 221 221 222 224 225 225 227 230 234 236 238 237 236 237 238
297 297 288 285 270 261 267 285 293 281 232 210 183 203 208 221 216 210 213 212 211 212 214 216 217 219 216 215 219 221 222 222 224 226 229 227 227 232 233 237 240 239 236 232 235
285 296 285 281 278 266 272 292 309 284 199 186 183 180 189 211 214 209 211 209 211 215 215 215 217 216 218 216 218 219 223 226 225 228 227 228 230 224 231 230 233 237 234 227 228
280 292 293 275 276 270 275 299 306 185 157 180 195 185 186 212 216 209 211 212 211 210 216 220 220 216 218 216 218 219 220 227 227 227 229 227 228 224 228 232 227 234 232 227 225
289 289 296 284 289 294 284 296 336 176 169 169 194 189 186 191 210 212 207 212 210 208 212 215 216 218 218 215 217 219 216 223 227 228 223 224 228 223 222 226 222 228 233 232 229
332 295 288 284 281 294 289 301 308 216 246 202 179 207 188 178 199 210 216 211 214 211 213 215 216 215 215 217 220 219 218 223 224 225 225 227 223 224 222 224 219 222 227 225 224
21 346 295 301 288 279 279 286 291 243 255 218 168 190 198 195 196 213 211 217 215 215 211 216 221 221 219 218 217 219 219 223 231 232 230 226 225 224 222 220 219 220 225 225 225
2 6 326 310 318 301 280 289 303 250 243 219 197 173 190 195 197 214 210 212 215 217 215 217 220 221 220 222 219 222 222 223 227 230 227 227 226 222 225 224 222 221 224 228 225
354 340 326 323 327 322 309 313 323 287 231 217 176 165 185 202 201 206 214 208 212 218 218 218 219 222 222 222 222 222 219 221 227 236 234 229 229 225 226 225 225 225 225 224 225
360 347 321 321 332 334 331 22 339 286 250 228 195 178 185 198 207 214 208 204 207 218 221 219 221 224 224 224 225 226 228 229 227 229 231 230 235 231 229 233 229 225 219 221 224
2 359 359 329 316 321 330 337 353 314 258 245 234 195 179 192 198 214 220 212 206 214 220 219 222 223 223 224 225 226 227 228 229 233 237 234 231 231 235 235 238 233 229 227 229
3 360 14 76 49 343 340 348 342 347 273 253 244 230 208 180 192 198 199 203 205 206 217 221 224 229 227 227 228 225 223 226 230 232 232 232 231 235 235 239 240 237 237 237 235
4 354 8 59 353 354 359 12 1 357 334 262 241 241 237 201 194 201 196 202 213 204 206 216 217 226 229 229 231 233 234 234 234 234 237 236 235 232 238 237 239 247 244 237 234
11 351 336 359 337 333 330 339 347 346 316 271 263 243 211 211 204 194 205 217 205 210 210 213 226 228 227 227 230 233 232 229 234 237 242 242 240 238 239 242 243 240 240 243 245
13 7 320 303 318 326 322 320 327 333 334 306 268 251 236 221 196 194 201 214 217 213 211 213 217 223 234 232 230 233 230 230 233 235 237 238 238 242 240 240 244 245 246 248 249
Height
5647 5647 5649 5652 5657 5662 5667 5674 5681 5691 5700 5706 5713 5721 5728 5735 5743 5750 5758 5766 5767 5770 5776 5781 5786 5790 5796 5801 5804 5808 5812 5814 5819 5823 5826 5828 5832 5836 5839 5842 5846 5848 5850 5852 5854
5620 5619 5621 5625 5630 5638 5645 5654 5663 5673 5684 5692 5700 5708 5717 5725 5734 5743 5751 5755 5760 5764 5772 5777 5781 5785 5792 5798 5801 5806 5812 5814 5816 5821 5825 5827 5831 5834 5838 5842 5845 5847 5849 5851 5853
5590 5588 5590 5596 5603 5611 5621 5631 5640 5651 5664 5676 5684 5694 5703 5714 5724 5736 5740 5746 5751 5759 5762 5769 5773 5779 5786 5792 5798 5804 5810 5812 5811 5817 5824 5826 5829 5833 5836 5840 5844 5845 5847 5850 5852
5564 5562 5562 5565 5574 5582 5593 5606 5618 5630 5644 5659 5669 5679 5688 5701 5712 5722 5729 5736 5742 5749 5755 5760 5768 5775 5780 5788 5794 5799 5803 5807 5810 5814 5820 5824 5826 5830 5834 5837 5840 5843 5845 5847 5849
5553 5552 5550 5550 5551 5557 5566 5580 5594 5609 5623 5641 5653 5662 5673 5686 5702 5712 5718 5726 5732 5742 5748 5755 5762 5770 5776 5783 5788 5795 5797 5801 5808 5811 5817 5820 5824 5826 5831 5834 5837 5839 5841 5844 5846
5544 5544 5545 5544 5544 5544 5548 5557 5571 5586 5603 5621 5636 5646 5658 5675 5689 5698 5707 5716 5724 5735 5742 5747 5755 5764 5769 5775 5782 5789 5791 5796 5804 5806 5809 5815 5820 5822 5827 5831 5834 5835 5838 5841 5843
5539 5538 5539 5538 5538 5538 5539 5542 5551 5566 5583 5600 5617 5631 5644 5662 5674 5685 5696 5704 5713 5724 5733 5740 5746 5751 5760 5767 5772 5781 5785 5789 5796 5801 5804 5810 5813 5818 5821 5825 5830 5832 5834 5838 5840
5533 5532 5533 5532 5532 5533 5534 5535 5538 5548 5566 5584 5600 5615 5630 5647 5660 5672 5685 5695 5702 5712 5720 5727 5734 5741 5749 5758 5765 5771 5776 5783 5791 5795 5798 5803 5812 5813 5817 5819 5824 5828 5830 5833 5836
5528 5527 5527 5526 5527 5527 5528 5531 5531 5535 5549 5567 5583 5600 5618 5636 5646 5661 5673 5683 5691 5701 5708 5717 5725 5733 5740 5749 5756 5758 5767 5779 5782 5788 5791 5797 5806 5808 5812 5814 5816 5822 5826 5827 5830
5524 5522 5522 5522 5522 5522 5524 5524 5526 5529 5535 5552 5567 5585 5605 5625 5635 5643 5655 5669 5678 5689 5700 5705 5714 5723 5730 5736 5743 5757 5762 5774 5777 5783 5786 5791 5799 5802 5806 5810 5812 5814 5818 5823 5825
5519 5518 5517 5518 5517 5518 5520 5520 5522 5525 5526 5545 5564 5576 5590 5606 5621 5632 5641 5654 5665 5675 5687 5696 5704 5712 5723 5735 5748 5752 5757 5765 5773 5776 5778 5785 5791 5797 5800 5802 5806 5810 5814 5815 5819
5515 5514 5513 5513 5513 5515 5515 5514 5515 5517 5520 5534 5550 5563 5575 5588 5607 5620 5629 5643 5655 5668 5676 5685 5695 5708 5717 5728 5737 5743 5748 5752 5760 5767 5772 5776 5782 5787 5792 5795 5798 5802 5806 5808 5812
5511 5510 5509 5508 5509 5510 5510 5510 5510 5510 5510 5524 5542 5555 5565 5579 5599 5612 5621 5635 5648 5658 5668 5680 5692 5698 5707 5717 5725 5732 5740 5743 5751 5758 5762 5768 5770 5774 5780 5783 5788 5794 5799 5802 5806
5505 5504 5504 5504 5506 5506 5506 5505 5504 5503 5508 5518 5540 5552 5564 5571 5586 5602 5615 5627 5636 5648 5659 5668 5680 5689 5700 5709 5718 5725 5734 5738 5742 5747 5754 5761 5762 5764 5773 5777 5782 5786 5792 5797 5798
5498 5499 5499 5500 5501 5502 5503 5502 5500 5502 5508 5519 5531 5548 5562 5564 5577 5590 5604 5612 5625 5640 5647 5662 5667 5679 5689 5702 5709 5719 5726 5731 5736 5739 5744 5750 5753 5759 5763 5768 5774 5779 5784 5789 5792
5491 5494 5495 5496 5497 5498 5499 5500 5499 5503 5505 5513 5517 5532 5548 5558 5567 5579 5591 5599 5614 5627 5639 5651 5663 5671 5684 5695 5700 5710 5718 5721 5727 5729 5730 5740 5746 5749 5756 5764 5769 5772 5777 5782 5787
5487 5491 5493 5494 5495 5495 5496 5497 5498 5499 5500 5505 5512 5522 5530 5545 5556 5568 5575 5585 5598 5613 5626 5638 5648 5661 5672 5682 5689 5697 5707 5710 5713 5715 5720 5730 5735 5744 5750 5756 5764 5767 5772 5778 5781
5486 5489 5491 5492 5493 5493 5494 5495 5495 5496 5493 5496 5505 5508 5523 5539 5551 5561 5570 5578 5590 5606 5621 5625 5635 5646 5659 5669 5680 5687 5696 5698 5698 5705 5716 5721 5724 5736 5745 5750 5757 5760 5765 5770 5774
5488 5489 5490 5491 5491 5492 5494 5493 5492 5492 5492 5495 5502 5509 5525 5537 5549 5553 5560 5573 5588 5597 5611 5619 5631 5645 5651 5662 5671 5676 5684 5698 5699 5703 5711 5716 5722 5730 5737 5743 5750 5755 5759 5764 5768
5490 5489 5490 5490 5491 5491 5491 5492 5492 5492 5492 5498 5504 5507 5519 5531 5540 5548 5556 5567 5578 5590 5606 5614 5624 5632 5644 5653 5660 5668 5684 5685 5687 5691 5699 5706 5712 5722 5730 5739 5745 5750 5755 5757 5761
5491 5490 5491 5491 5491 5491 5490 5491 5491 5490 5493 5498 5503 5506 5515 5521 5529 5535 5550 5563 5575 5585 5596 5605 5614 5622 5632 5637 5652 5658 5663 5672 5682 5687 5693 5702 5707 5720 5724 5730 5736 5743 5747 5751 5754
5492 5491 5491 5490 5491 5491 5490 5490 5491 5490 5490 5495 5500 5504 5511 5515 5525 5534 5544 5558 5572 5580 5586 5595 5601 5613 5622 5631 5642 5650 5660 5668 5671 5677 5683 5691 5699 5711 5718 5723 5728 5735 5739 5742 5747
5495 5492 5491 5490 5491 5492 5490 5489 5489 5490 5488 5493 5495 5501 5505 5513 5523 5532 5541 5556 5563 5571 5577 5585 5588 5599 5610 5619 5628 5637 5651 5659 5665 5670 5672 5685 5694 5703 5710 5716 5720 5726 5733 5736 5740
5496 5494 5492 5491 5492 5492 5493 5490 5488 5488 5488 5490 5494 5496 5501 5507 5512 5523 5535 5546 5550 5558 5570 5580 5582 5589 5600 5616 5623 5626 5636 5644 5650 5655 5663 5670 5686 5693 5701 5706 5711 5717 5724 5730 5734
5500 5497 5495 5494 5494 5493 5492 5492 5490 5489 5488 5487 5492 5491 5493 5502 5510 5518 5527 5534 5545 5554 5558 5566 5571 5580 5592 5602 5612 5622 5633 5638 5641 5654 5654 5670 5675 5685 5691 5699 5705 5711 5716 5720 5723
5505 5499 5495 5494 5494 5494 5493 5491 5490 5489 5486 5487 5484 5488 5494 5502 5508 5514 5523 5529 5539 5548 5553 5560 5562 5572 5579 5589 5600 5607 5617 5624 5633 5643 5650 5659 5665 5676 5684 5688 5693 5700 5703 5707 5710
5509 5500 5496 5494 5494 5494 5493 5491 5489 5487 5487 5481 5480 5483 5489 5494 5501 5509 5518 5523 5533 5539 5547 5553 5559 5567 5571 5579 5586 5587 5600 5615 5626 5633 5639 5642 5656 5665 5671 5676 5681 5687 5693 5697 5699